PDT,Max TemperatureF,Mean TemperatureF,Min TemperatureF,Max Dew PointF,MeanDew PointF,Min DewpointF,Max Humidity, Mean Humidity, Min Humidity, Max Sea Level PressureIn, Mean Sea Level PressureIn, Min Sea Level PressureIn, Max VisibilityMiles, Mean VisibilityMiles, Min VisibilityMiles, Max Wind SpeedMPH, Mean Wind SpeedMPH, Max Gust SpeedMPH,PrecipitationIn, CloudCover, Events, WindDirDegrees
2013-9-1,87,78,69,55,46,39,53,33,20,29.96,29.93,29.89,10,10,10,10,7,,0.02,3,,161
2013-9-2,75,70,64,66,60,48,100,75,38,29.99,29.94,29.90,10,9,3,10,5,,0.27,6,,123
2013-9-3,82,72,62,63,56,48,94,61,39,30.01,29.96,29.93,10,10,10,10,5,,0.00,1,,167
2013-9-4,84,73,62,57,51,46,77,49,30,30.04,29.99,29.95,10,10,10,10,6,,0.00,0,,163
2013-9-5,82,70,59,54,48,43,77,48,26,30.02,29.98,29.94,10,10,10,14,7,,0.00,0,,164
2013-9-6,89,71,53,46,44,39,67,37,17,30.00,29.96,29.89,10,10,10,9,4,,0.00,0,,291
2013-9-7,93,80,68,48,46,45,46,33,20,29.94,29.90,29.86,10,9,5,10,5,,0.00,0,,138
2013-9-8,96,82,69,48,45,39,43,30,14,29.91,29.86,29.80,10,10,8,9,5,16,0.00,0,,93
2013-9-9,96,82,69,55,46,39,50,29,18,29.84,29.79,29.73,10,10,10,12,5,,0.00,0,,154
2013-9-10,89,74,60,55,49,41,60,37,22,29.88,29.80,29.74,10,10,10,9,6,,0.00,0,,164
2013-9-11,80,70,60,55,55,48,82,62,32,30.00,29.95,29.89,10,10,10,9,5,,0.00,0,,168
2013-9-12,84,70,57,57,54,48,88,57,29,29.99,29.94,29.89,10,10,10,9,4,,0.00,0,,191
2013-9-13,87,74,62,57,55,52,72,51,35,29.92,29.85,29.76,10,10,10,9,2,,0.00,0,,240
2013-9-14,87,79,71,57,56,54,60,47,33,29.81,29.77,29.74,10,10,10,8,4,,0.00,0,,161
2013-9-15,82,72,62,55,49,32,68,46,16,29.86,29.82,29.75,10,10,10,12,6,,0.00,0,,158
2013-9-16,84,72,60,54,47,39,60,42,28,29.90,29.85,29.79,10,10,10,10,6,,0.00,0,,157
2013-9-17,75,64,53,52,49,45,77,56,36,29.90,29.84,29.79,10,10,10,14,7,18,0.00,0,,172
2013-9-18,80,64,48,46,43,39,82,45,24,29.92,29.87,29.84,10,10,10,9,2,20,0.00,0,,296
2013-9-19,86,70,55,43,40,37,63,34,19,29.90,29.84,29.79,10,10,10,9,3,,0.00,0,,145
2013-9-20,80,70,60,57,44,32,82,42,19,29.87,29.81,29.77,10,10,10,14,8,20,0.00,1,,153
2013-9-21,64,58,51,57,54,48,100,88,64,29.89,29.85,29.82,10,8,2,18,7,23,1.01,7,,156
2013-9-22,69,58,46,50,48,46,100,72,43,30.00,29.96,29.89,10,10,10,12,4,,0.00,1,,308
2013-9-23,78,64,51,54,50,46,88,63,39,30.03,29.99,29.96,10,10,10,8,3,,0.00,0,,277
2013-9-24,73,66,57,54,51,45,77,61,36,29.98,29.93,29.86,10,10,10,15,8,20,0.00,1,,161
2013-9-25,66,57,48,50,42,32,94,59,28,29.91,29.87,29.81,10,10,10,13,4,17,0.00,2,,220
2013-9-26,71,58,44,39,35,32,76,44,27,29.98,29.87,29.80,10,10,10,18,3,25,0.00,0,,319
2013-9-27,73,58,44,39,34,32,66,38,23,30.10,30.05,29.99,10,10,10,10,4,,0.00,0,,96
2013-9-28,78,66,55,39,37,36,54,37,21,30.13,30.08,30.02,10,10,10,10,6,,0.00,0,,136
2013-9-29,73,65,57,57,49,37,88,57,37,30.13,30.08,30.05,10,10,10,15,7,18,0.00,0,,174
2013-9-30,73,65,57,59,56,54,94,77,53,30.10,30.05,29.98,10,10,2,9,6,,0.00,5,,165